Location: Darmstadt
(49.8706°N, 8.6494°E)
Time: 05:36:11
(UTC+01:00)

Cosmos 1076 Rocket - Pass Details

Date: 31 October 2020
Orbit: 589 x 612 km, 82.5° (Epoch: 02 December)

Event Time Altitude Azimuth Distance (km) Brightness Sun altitude
Rises 18:12:11 0° 355° (N) 2,837 6.9 -11.5°
Reaches altitude 10° 18:14:29 10° 2° (N) 1,932 6.0 -11.8°
Maximum altitude 18:18:33 43° 75° (ENE) 838 3.8 -12.5°
Drops below altitude 10° 18:22:37 10° 147° (SSE) 1,924 5.8 -13.1°
Sets 18:24:54 0° 154° (SSE) 2,824 6.7 -13.5°
